Weather History for KCAK - October, 2013

Change the Weather History Date:

Sunday, October 6, 2013

  Actual Average Record
Temperature  
Mean Temperature 68 °F 55 °F  
Max Temperature 80 °F 65 °F 87 °F (1922)
Min Temperature 55 °F 46 °F 31 °F (1935)
Degree Days  
Heating Degree Days 0 10  
Month to date heating degree days 0 57  
Since 1 July heating degree days 115 196  
Cooling Degree Days 3 0  
Month to date cooling degree days 28 3  
Year to date cooling degree days 829 649  
Growing Degree Days 22 (Base 50)    
Moisture  
Dew Point 64 °F    
Average Humidity 76    
Maximum Humidity 93    
Minimum Humidity 58    
Precipitation  
Precipitation 0.26 in 0.09 in 0.57 in (1981)
Month to date precipitation 3.10 0.55  
Year to date precipitation 33.07 31.20  
Snow  
Snow 0.00 in 0.00 in - ()
Month to date snowfall 0.0 0.0  
Since 1 July snowfall 0.0 0.0  
Since 1 September snowfall 0.0 0.0  
Snow Depth 0.00 in    
Sea Level Pressure  
Sea Level Pressure 29.83 in    
Wind  
Wind Speed 10 mph (SSW)    
Max Wind Speed 32 mph    
Max Gust Speed 43 mph    
Visibility 6 miles    
Events Rain    
T = Trace of Precipitation, MM = Missing Value Source: NWS Daily Summary

Daily Weather History Graph

Daily Weather History Graph

Search for Another Location

Airport or City:

Trip Planner

Search our weather history database for the weather conditions in past years. The results will help you decide how hot, cold, wet, or windy it might be!

Date:

Astronomy

Oct. 06, 2013 Rise Set
Actual Time 7:27 AM EDT 6:59 PM EDT
Civil Twilight 7:00 AM EDT 7:26 PM EDT
Nautical Twilight 6:28 AM EDT 7:58 PM EDT
Astronomical Twilight 5:56 AM EDT 8:30 PM EDT
Moon 9:11 AM EDT (10/6) 7:56 PM EDT (10/6)
Length of Visible Light 12h 26m
Length of Day
11h 31m
Waxing Crescent, 3% of the Moon is Illuminated
Oct 6
Waxing Crescent
Oct 11
First Quarter
Oct 18
Full
Oct 26
Last Quarter
Nov 3
New

Hourly Weather History & Observations

Time (EDT) Temp. Dew Point Humidity Pressure Visibility Wind Dir Wind Speed Gust Speed Precip Events Conditions
12:51 AM 69.1 °F 66.9 °F 93% 29.94 in 4.0 mi South 6.9 mph - N/A   Mostly Cloudy
1:51 AM 68.0 °F 66.0 °F 93% 29.94 in 4.0 mi South 5.8 mph - N/A   Mostly Cloudy
2:51 AM 68.0 °F 66.0 °F 93% 29.92 in 2.0 mi South 4.6 mph - 0.00 in Rain Light Rain
3:51 AM 69.1 °F 66.9 °F 93% 29.91 in 3.0 mi South 4.6 mph - 0.00 in   Mostly Cloudy
4:51 AM 69.1 °F 66.9 °F 93% 29.90 in 2.0 mi South 5.8 mph - 0.00 in   Overcast
5:51 AM 68.0 °F 66.0 °F 93% 29.90 in 3.0 mi South 4.6 mph - N/A   Overcast
6:51 AM 69.1 °F 66.0 °F 90% 29.90 in 3.0 mi SSE 6.9 mph - N/A   Overcast
7:42 AM 68.0 °F 66.2 °F 94% 29.91 in 2.5 mi SSE 11.5 mph - N/A   Overcast
7:51 AM 68.0 °F 66.0 °F 93% 29.89 in 2.5 mi SSE 9.2 mph - N/A   Overcast
8:23 AM 68.0 °F 66.2 °F 94% 29.91 in 3.0 mi South 10.4 mph - N/A   Mostly Cloudy
8:51 AM 69.1 °F 66.0 °F 90% 29.89 in 3.0 mi South 8.1 mph - N/A   Mostly Cloudy
9:51 AM 73.0 °F 68.0 °F 84% 29.88 in 5.0 mi South 17.3 mph - N/A   Haze
10:51 AM 73.0 °F 66.9 °F 81% 29.87 in 7.0 mi SSW 12.7 mph - N/A   Mostly Cloudy
11:39 AM 75.2 °F 66.2 °F 73% 29.88 in 7.0 mi SW 17.3 mph 27.6 mph N/A   Overcast
11:51 AM 75.0 °F 66.0 °F 73% 29.86 in 7.0 mi SSW 15.0 mph 27.6 mph N/A   Overcast
12:51 PM 75.9 °F 64.9 °F 69% 29.85 in 8.0 mi SW 18.4 mph 28.8 mph N/A   Overcast
1:51 PM 78.1 °F 64.9 °F 64% 29.82 in 9.0 mi SW 12.7 mph 25.3 mph N/A   Mostly Cloudy
2:51 PM 73.9 °F 63.0 °F 68% 29.80 in 9.0 mi SSW 13.8 mph 26.5 mph N/A   Mostly Cloudy
3:51 PM 79.0 °F 63.0 °F 58% 29.76 in 10.0 mi SSW 19.6 mph 26.5 mph N/A   Scattered Clouds
4:51 PM 78.1 °F 64.0 °F 62% 29.73 in 10.0 mi South 12.7 mph - N/A   Scattered Clouds
5:51 PM 75.9 °F 63.0 °F 64% 29.73 in 9.0 mi South 8.1 mph - N/A   Mostly Cloudy
6:51 PM 75.9 °F 62.1 °F 62% 29.71 in 9.0 mi South 11.5 mph - N/A   Mostly Cloudy
7:51 PM 75.0 °F 61.0 °F 62% 29.72 in 10.0 mi South 12.7 mph - N/A   Overcast
8:14 PM 66.2 °F 62.6 °F 88% 29.78 in 0.8 mi SW 20.7 mph 42.6 mph 0.01 in Rain Heavy Rain
8:19 PM 66.2 °F 62.6 °F 88% 29.78 in 4.0 mi SW 21.9 mph 42.6 mph 0.10 in Rain Heavy Rain
8:51 PM 64.9 °F 62.1 °F 90% 29.75 in 10.0 mi WSW 8.1 mph - 0.13 in   Overcast
9:51 PM 64.9 °F 63.0 °F 93% 29.73 in 5.0 mi WSW 5.8 mph 16.1 mph 0.01 in Rain Light Rain
10:05 PM 64.4 °F 62.6 °F 94% 29.76 in 10.0 mi WSW 9.2 mph - 0.01 in   Overcast
10:51 PM 64.9 °F 63.0 °F 93% 29.73 in 10.0 mi West 5.8 mph - 0.01 in   Overcast
11:51 PM 57.0 °F 55.0 °F 93% 29.75 in 10.0 mi WNW 9.2 mph - 0.00 in   Overcast